AirNav   Air Wisconsin Up To $57,000 Bonus
 
 662 users online  

ME75 Margerison Airport
Durham, Maine, USA

GOING TO DURHAM?


FAA INFORMATION EFFECTIVE 11 AUGUST 2022

Location

FAA Identifier: ME75
Lat/Long: 43-57-14.2780N 070-08-29.1880W
43-57.237967N 070-08.486467W
43.9539661,-70.1414411
(estimated)
Elevation: 220 ft. / 67 m (estimated)
Variation: 17W (1985)
From city: 1 mile SW of DURHAM, ME
Time zone: UTC -4 (UTC -5 during Standard Time)
Zip code: 04222

Airport Operations

Airport use: Private use. Permission required prior to landing
Activation date: 10/1979
Control tower: no
ARTCC: BOSTON CENTER
FSS: BANGOR FLIGHT SERVICE STATION
Attendance: CONTINUOUS
Wind indicator: yes
Segmented circle: no

Airport Communications

WX AWOS-3PT at LEW (8 nm NW): 118.025 (207-783-2806)
WX AWOS-AV at BXM (10 nm SE): 134.875 (207-409-1747)
WX ASOS at IWI (19 nm E): 135.725 (207-882-8094)
WX ASOS at PWM (20 nm S): 119.05 (207-874-7914)

Nearby radio navigation aids

VOR radial/distance  VOR name  Freq  Var
AUGr232/26.5AUGUSTA VOR/DME114.9518W
ENEr050/37.7KENNEBUNK VOR/DME117.1017W

 
NDB name  Hdg/Dist  Freq  Var  ID
LEWIE110/8.524017WLE .-.. .

Airport Services

Runway Information

Runway 9/27

Dimensions: 2800 x 100 ft. / 853 x 30 m
Surface: turf
RUNWAY 9  RUNWAY 27
Traffic pattern: leftleft
Obstructions: 30 ft. trees, 1000 ft. from runway30 ft. trees, 500 ft. from runway

Runway 15/33

Dimensions: 1600 x 100 ft. / 488 x 30 m
Surface: turf
RUNWAY 15  RUNWAY 33
Traffic pattern: leftleft
Obstructions: 30 ft. trees, 100 ft. from runway30 ft. trees, 1000 ft. from runway

Airport Ownership and Management from official FAA records

Ownership: Privately-owned
Owner: HOWARD MARGERISON
1050 HALLOWELL ROAD
DURHAM, ME 04222
Phone 207-353-6237
Manager: HOWARD MARGERISON
1050 HALLOWELL ROAD
DURHAM, ME 04222
Phone 207-353-6237

Airport Operational Statistics

Aircraft based on the field: 3
Single engine airplanes: 3
    

Additional Remarks

FOR CD CTC PORTLAND APCH AT 207-874-7320, WHEN APCH CLSD CTC BOSTON ARTCC AT 603-879-6859.

Instrument Procedures

There are no published instrument procedures at ME75.

Some nearby airports with instrument procedures:

KLEW - Auburn/Lewiston Municipal Airport (8 nm NW)
KBXM - Brunswick Executive Airport (10 nm SE)
KIWI - Wiscasset Airport (19 nm E)
81B - Oxford County Regional Airport (19 nm NW)
KPWM - Portland International Jetport (20 nm S)
 
Loc | Ops | Rwys | IFR | FBO | Links
Com | Nav | Svcs | Stats | Notes
Area around ME75 (Margerison Airport)
 
Road maps at: MapQuest Bing Google
 
Aerial photo
No photo
 
Sectional chart

 
Airport distance calculator
Flying to Margerison Airport? Find the distance to fly.

From to ME75

Sunrise and sunset
Times for 16-Aug-2022
 Local
(UTC-4)
 Zulu
(UTC)
Morning civil twilight05:1509:15
Sunrise05:4709:47
Sunset19:4323:43
Evening civil twilight20:1400:14

Current date and time
Zulu (UTC)  16-Aug-2022 06:15:03
Local (UTC-4)  16-Aug-2022 02:15:03
 
METAR
KLEW 
7nm NW 
160556Z AUTO 00000KT 10SM CLR 14/14 A3007 RMK AO2 SLP188 T01440144 10206 20144 50000
KIWI 
18nm E 
160553Z AUTO 00000KT 10SM BKN110 16/14 A3007 RMK AO2 SLP183 T01560144 10217 20156 58001
KPWM 
19nm S 
160551Z AUTO 00000KT 10SM SCT100 16/16 A3006 RMK AO2 SLP178 T01610156 10206 20161 58002
TAF
KPWM 
19nm S 
151726Z 1518/1618 15008KT P6SM SCT050 BKN250 FM160000 VRB03KT P6SM OVC250 FM160700 VRB02KT 6SM BR OVC250 FM161200 02005KT P6SM OVC150
NOTAMs
Click for the latest NOTAMs
NOTAMs are issued by the DoD/FAA and will open in a separate window not controlled by AirNav.

 

 
 

Would you like to see your business listed on this page?

 If your business provides an interesting product or service to pilots, flight crews, aircraft, or users of the Margerison Airport, you should consider listing it here.  To start the listing process, click on the button below
 
Add a business
 

Other Pages about Margerison Airport

Update a link
 
Copyright © AirNav, LLC. All rights reserved. Privacy Policy  Contact